Current weather by "City, St" or "zip code"  
 
Advertise Here

Current Conditions: Orlando International Airport, FL

Fair


63.0 F

Last Updated on Nov 23 2020, 9:53 pm EST
Humidity: 84%
Wind Speed: NE 8.1 mph
Barometer 30.15 in
Dewpoint: 57.9 F
Visibility: 10.00 mi
Precip: --
Heat Index: NA
Wind Chill: 63 F
Current conditions at:

Orlando International Airport, FL (KMCO)

Lat: 28.41826 Lon: 81.32413

Local Radar Image active severe weather and emergency alerts image image weather storm and storm spotter reports image weather observation monitoring service image
Local
Radar
Active
Alerts
Storm Reports Obs
Monitoring

Sign-up For Email & Text Message Weather Alert Notification Services


Advertise Here

Observation History for Orlando International Airport, FL


Time Wind
(mph)
Vis
(mi)
Weather Precip (in) Temperature (F) Relative
Humidity
Wind
Chill
(F)
Heat
Index
(F)
Pressure
Air Dwpt altimeter
(in)
sea level
(mb)
Rmks
9:53 pm EST NE 8.1 10.00 Fair -- 63.0 57.9 84% 63 NA 30.15 1020.9
8:53 pm EST N 6.9 10.00 Fair -- 63.0 57.9 84% 63 NA 30.15 1020.7
7:53 pm EST NE 8.1 10.00 Fair -- 66.0 57.0 73% NA NA 30.13 1020.0
6:53 pm EST NE 10.4 10.00 Fair -- 67.0 55.9 68% NA NA 30.12 1019.7
4:53 pm EST NE 11.5 10.00 A Few Clouds -- 73.0 54.0 51% NA NA 30.07 1018.2
2:53 pm EST N 12.7 10.00 A Few Clouds -- 76.0 57.0 52% NA NA 30.05 1017.3
1:53 pm EST N 11.5 10.00 Partly Cloudy -- 76.0 57.9 54% NA NA 30.06 1017.6
12:53 pm EST N 13.8 G 24.2 10.00 Partly Cloudy -- 74.0 57.9 57% NA NA 30.07 1018.1
11:53 am EST N 17.3 G 24.2 10.00 Partly Cloudy -- 74.0 57.9 57% NA NA 30.09 1018.6
10:53 am EST N 15.0 10.00 A Few Clouds -- 74.0 61.0 64% NA NA 30.10 1019.0
9:53 am EST N 11.5 10.00 A Few Clouds -- 72.0 63.0 73% NA NA 30.10 1019.1
8:53 am EST N 12.7 10.00 Partly Cloudy -- 70.0 64.0 82% NA NA 30.09 1018.7
7:53 am EST N 9.2 10.00 Partly Cloudy -- 66.0 64.0 93% NA NA 30.08 1018.3
6:53 am EST N 6.9 10.00 Mostly Cloudy -- 66.0 64.9 96% NA NA 30.07 1017.9
5:53 am EST N 10.4 10.00 Overcast -- 66.0 64.9 96% NA NA 30.05 1017.3
4:53 am EST N 10.4 10.00 Overcast -- 67.0 64.9 93% NA NA 30.04 1016.9
3:53 am EST N 11.5 10.00 Overcast -- 67.0 66.0 97% NA NA 30.04 1017.0
2:53 am EST N 8.1 10.00 Overcast -- 67.0 66.0 97% NA NA 30.05 1017.3
1:53 am EST N 8.1 10.00 Overcast -- 67.0 66.9 100% NA NA 30.05 1017.5
12:53 am EST N 8.1 10.00 Overcast -- 68.0 66.9 96% NA NA 30.06 1017.8
11:53 pm EST N 9.2 10.00 Overcast -- 68.0 68.0 100% NA NA 30.08 1018.3
10:53 pm EST N 9.2 10.00 Overcast -- 69.0 68.0 96% NA NA 30.08 1018.4

Regional Weather Observation


Leesburg International Airport, FL (KLEE)

Fair
62.0 F

Orlando / Sanford Airport, FL (KSFB)

Fair
64.0 F

Orlando International Airport, FL (KMCO)

Fair
63.0 F

Kissimmee Gateway Airport, FL (KISM)

Fair
66.0 F

Winter Havens Gilbert Airport, FL (KGIF)

Fair
64.0 F

DeLand Municipal Airport, FL (KDED)

Fair
60.0 F